Location: Newark
(48.6461°N, 4.3644°W)
Time: 16:17:39
(UTC+00:00)

deb Explorer IX - Pass Details

Date: 30 January 2020
Orbit: 549 x 1099 km, 38.8° (Epoch: 17 February)

Event Time Altitude Azimuth Distance (km) Brightness Sun altitude
Rises 21:01:26 0° 239° (WSW) 3,567 ? -37.7°
Reaches altitude 10° 21:04:09 10° 231° (SW) 2,703 ? -38.2°
Enters shadow 21:05:39 17° 222° (SW) 2,276 ? -38.4°
